EZY34VC LEMD-LEPA

Flight info

Callsign EZY34VC
Flight time N/A
Altitude 25000
Route NANDO T257 LASPO M871 GODOX
Aircraft A320/M-SDE3FGHIRWY/LB1

Departure

Time 2026-05-06 18:37
Airport Adolfo Suárez Madrid–Barajas Airport (LEMD)

Arrival

Time N/A
Airport Palma de Mallorca Airport (LEPA)
Time Latitude Longitude Altitude Speed Heading
2026-05-06 18:07 40.47231 -3.57016 1981 ft 0 kts 261°
2026-05-06 18:22 40.47231 -3.57013 1980 ft 2 kts 261°
2026-05-06 18:22 40.47233 -3.56989 1980 ft 3 kts 270°
2026-05-06 18:23 40.47232 -3.56963 1980 ft 3 kts 286°
2026-05-06 18:23 40.47224 -3.56940 1984 ft 3 kts 314°
2026-05-06 18:23 40.47212 -3.56929 1981 ft 3 kts 352°
2026-05-06 18:27 40.47240 -3.56930 1982 ft 19 kts
2026-05-06 18:27 40.47313 -3.56901 1983 ft 12 kts 41°
2026-05-06 18:27 40.47374 -3.56858 1980 ft 9 kts 353°
2026-05-06 18:27 40.47430 -3.56917 1980 ft 16 kts 317°
2026-05-06 18:28 40.47544 -3.57026 1981 ft 19 kts 319°
2026-05-06 18:28 40.47628 -3.57118 1980 ft 13 kts 321°
2026-05-06 18:28 40.47694 -3.57187 1983 ft 11 kts 321°
2026-05-06 18:28 40.47761 -3.57256 1980 ft 18 kts 322°
2026-05-06 18:29 40.47871 -3.57362 1980 ft 20 kts 323°
2026-05-06 18:29 40.47981 -3.57476 1980 ft 21 kts 321°
2026-05-06 18:29 40.48097 -3.57597 1980 ft 22 kts 321°
2026-05-06 18:29 40.48219 -3.57719 1980 ft 22 kts 327°
2026-05-06 18:30 40.48327 -3.57806 1981 ft 10 kts 330°
2026-05-06 18:30 40.48408 -3.57887 1980 ft 27 kts 321°
2026-05-06 18:30 40.48528 -3.58003 1983 ft 21 kts 324°
2026-05-06 18:30 40.48640 -3.58061 1980 ft 15 kts 358°
2026-05-06 18:31 40.48743 -3.58044 1982 ft 15 kts 28°
2026-05-06 18:31 40.48773 -3.57922 1981 ft 19 kts 91°
2026-05-06 18:31 40.48768 -3.57753 1983 ft 16 kts 89°
2026-05-06 18:31 40.48812 -3.57622 1980 ft 19 kts 19°
2026-05-06 18:32 40.48858 -3.57441 1980 ft 28 kts 92°
2026-05-06 18:32 40.48859 -3.57182 1980 ft 28 kts 88°
2026-05-06 18:32 40.48864 -3.56921 1980 ft 29 kts 89°
2026-05-06 18:32 40.48867 -3.56661 1980 ft 28 kts 92°
2026-05-06 18:33 40.48860 -3.56410 1980 ft 23 kts 89°
2026-05-06 18:33 40.48903 -3.56248 1980 ft 17 kts 21°
2026-05-06 18:33 40.49018 -3.56251 1980 ft 18 kts 355°
2026-05-06 18:33 40.49188 -3.56253 1980 ft 31 kts
2026-05-06 18:34 40.49422 -3.56245 1980 ft 34 kts 360°
2026-05-06 18:34 40.49659 -3.56247 1980 ft 34 kts 359°
2026-05-06 18:34 40.49842 -3.56253 1981 ft 23 kts 358°
2026-05-06 18:34 40.49943 -3.56169 1980 ft 18 kts 89°
2026-05-06 18:35 40.49946 -3.56046 1980 ft 3 kts 75°
2026-05-06 18:35 40.49948 -3.56040 1983 ft 0 kts 73°
2026-05-06 18:35 40.49948 -3.56036 1982 ft 3 kts 73°
2026-05-06 18:35 40.49990 -3.55956 1982 ft 13 kts 39°
2026-05-06 18:36 40.50090 -3.55922 1980 ft 22 kts
2026-05-06 18:36 40.50179 -3.55923 1980 ft 9 kts 359°
2026-05-06 18:36 40.50372 -3.55924 1980 ft 65 kts 360°
2026-05-06 18:36 40.51104 -3.55927 1981 ft 142 kts 360°
2026-05-06 18:37 40.52261 -3.55927 2306 ft 174 kts
2026-05-06 18:37 40.53476 -3.55914 3196 ft 176 kts
2026-05-06 18:37 40.54657 -3.55621 4074 ft 168 kts 24°
2026-05-06 18:37 40.55700 -3.55010 4787 ft 164 kts 28°
2026-05-06 18:38 40.56777 -3.54397 5215 ft 179 kts 18°
2026-05-06 18:38 40.58051 -3.53944 5496 ft 201 kts 15°
2026-05-06 18:38 40.59449 -3.53342 5742 ft 223 kts 27°
2026-05-06 18:38 40.60787 -3.52143 6115 ft 241 kts 39°
2026-05-06 18:39 40.62112 -3.50742 6829 ft 246 kts 40°
2026-05-06 18:39 40.63435 -3.49293 7604 ft 249 kts 41°
2026-05-06 18:39 40.64766 -3.47811 8383 ft 253 kts 41°
2026-05-06 18:40 40.67476 -3.44780 9986 ft 258 kts 41°
2026-05-06 18:40 40.68856 -3.43231 10700 ft 262 kts 41°
2026-05-06 18:40 40.70248 -3.41668 11478 ft 264 kts 41°
2026-05-06 18:40 40.71476 -3.39765 11786 ft 285 kts 64°
2026-05-06 18:41 40.71962 -3.37171 12016 ft 304 kts 92°
2026-05-06 18:41 40.71395 -3.34426 12241 ft 324 kts 121°
2026-05-06 18:41 40.70063 -3.31985 12575 ft 338 kts 129°
2026-05-06 18:41 40.68577 -3.29542 13224 ft 344 kts 130°
2026-05-06 18:42 40.67046 -3.27102 13900 ft 348 kts 130°
2026-05-06 18:42 40.65486 -3.24630 14510 ft 352 kts 131°
2026-05-06 18:42 40.63916 -3.22123 15109 ft 357 kts 130°
2026-05-06 18:42 40.62338 -3.19571 15705 ft 362 kts 130°
2026-05-06 18:43 40.60749 -3.16977 16300 ft 366 kts 130°
2026-05-06 18:43 40.59143 -3.14343 16894 ft 371 kts 130°
2026-05-06 18:43 40.57523 -3.11686 17478 ft 375 kts 131°
2026-05-06 18:43 40.55874 -3.08992 18055 ft 380 kts 131°
2026-05-06 18:44 40.54207 -3.06274 18567 ft 384 kts 131°
2026-05-06 18:44 40.52520 -3.03527 19053 ft 388 kts 131°
2026-05-06 18:44 40.50812 -3.00751 19546 ft 392 kts 131°
2026-05-06 18:44 40.49084 -2.97951 20051 ft 396 kts 131°
2026-05-06 18:45 40.47345 -2.95133 20545 ft 399 kts 131°
2026-05-06 18:45 40.45589 -2.92283 21032 ft 403 kts 131°
2026-05-06 18:45 40.43822 -2.89415 21509 ft 406 kts 131°
2026-05-06 18:45 40.42036 -2.86520 21992 ft 409 kts 131°
2026-05-06 18:46 40.40233 -2.83601 22468 ft 413 kts 132°
2026-05-06 18:46 40.38420 -2.80665 22938 ft 416 kts 132°
2026-05-06 18:46 40.36589 -2.77709 23408 ft 419 kts 132°
2026-05-06 18:46 40.34743 -2.74733 23792 ft 422 kts 132°
2026-05-06 18:47 40.32883 -2.71737 24185 ft 425 kts 132°
2026-05-06 18:47 40.31013 -2.68725 24577 ft 427 kts 132°
2026-05-06 18:47 40.29160 -2.65742 24946 ft 430 kts 132°
2026-05-06 18:47 40.27256 -2.62685 25305 ft 432 kts 133°
2026-05-06 18:48 40.25347 -2.59627 25687 ft 435 kts 133°
2026-05-06 18:48 40.23429 -2.56554 25892 ft 436 kts 132°
2026-05-06 18:48 40.21534 -2.53511 25922 ft 425 kts 133°
2026-05-06 18:48 40.19682 -2.50539 25932 ft 421 kts 133°
2026-05-06 18:49 40.17830 -2.47578 25928 ft 419 kts 133°
2026-05-06 18:49 40.15984 -2.44631 25928 ft 419 kts 133°
2026-05-06 18:49 40.14141 -2.41690 25928 ft 418 kts 133°
2026-05-06 18:49 40.12294 -2.38743 25928 ft 418 kts 133°
2026-05-06 18:50 40.10450 -2.35801 25928 ft 418 kts 133°
2026-05-06 18:50 40.08599 -2.32860 25928 ft 418 kts 133°
2026-05-06 18:50 40.06754 -2.29934 25928 ft 418 kts 133°
2026-05-06 18:50 40.04905 -2.27004 25921 ft 418 kts 134°
2026-05-06 18:51 40.03054 -2.24071 25922 ft 418 kts 134°
2026-05-06 18:51 40.01207 -2.21141 25919 ft 418 kts 134°
2026-05-06 18:51 39.99358 -2.18205 25906 ft 419 kts 133°
2026-05-06 18:51 39.97658 -2.15100 25910 ft 422 kts 127°
2026-05-06 18:52 39.96144 -2.11815 25908 ft 424 kts 123°
2026-05-06 18:52 39.94751 -2.08409 25910 ft 426 kts 121°
2026-05-06 18:52 39.93417 -2.04969 25914 ft 426 kts 121°
2026-05-06 18:52 39.92081 -2.01529 25908 ft 425 kts 121°
2026-05-06 18:53 39.90714 -1.98112 25918 ft 425 kts 122°
2026-05-06 18:53 39.89312 -1.94724 25919 ft 425 kts 123°
2026-05-06 18:53 39.87884 -1.91359 25920 ft 425 kts 123°
2026-05-06 18:53 39.86440 -1.88003 25906 ft 425 kts 124°
2026-05-06 18:54 39.85009 -1.84696 25914 ft 425 kts 124°
2026-05-06 18:54 39.83558 -1.81340 25922 ft 425 kts 124°
2026-05-06 18:54 39.82111 -1.77977 25925 ft 426 kts 123°
2026-05-06 18:54 39.80672 -1.74615 25927 ft 426 kts 123°
2026-05-06 18:55 39.79235 -1.71244 25902 ft 426 kts 123°
2026-05-06 18:55 39.77798 -1.67877 25919 ft 426 kts 124°
2026-05-06 18:55 39.76356 -1.64505 25925 ft 426 kts 124°
2026-05-06 18:55 39.74915 -1.61146 25931 ft 425 kts 124°
2026-05-06 18:56 39.73472 -1.57787 25937 ft 425 kts 124°
2026-05-06 18:56 39.72027 -1.54428 25942 ft 425 kts 124°
2026-05-06 18:56 39.70580 -1.51074 25946 ft 425 kts 124°
2026-05-06 18:56 39.69132 -1.47723 25950 ft 425 kts 124°
2026-05-06 18:57 39.67684 -1.44379 25954 ft 425 kts 124°
2026-05-06 18:57 39.66237 -1.41034 25956 ft 425 kts 124°
2026-05-06 18:57 39.64786 -1.37677 25957 ft 425 kts 124°
2026-05-06 18:57 39.63338 -1.34324 25961 ft 425 kts 124°
2026-05-06 18:58 39.61892 -1.30984 25959 ft 425 kts 124°
2026-05-06 18:58 39.60460 -1.27681 25960 ft 425 kts 124°
2026-05-06 18:58 39.58991 -1.24301 25959 ft 425 kts 124°
2026-05-06 18:58 39.57553 -1.21000 25959 ft 425 kts 124°
2026-05-06 18:59 39.56099 -1.17672 25964 ft 424 kts 124°
2026-05-06 18:59 39.54645 -1.14346 25957 ft 424 kts 124°
2026-05-06 18:59 39.53193 -1.11025 25962 ft 424 kts 124°
2026-05-06 18:59 39.51736 -1.07699 25964 ft 424 kts 124°
2026-05-06 19:00 39.50282 -1.04382 25918 ft 423 kts 124°
2026-05-06 19:00 39.48849 -1.01104 25667 ft 414 kts 124°
2026-05-06 19:00 39.47441 -0.97883 25426 ft 409 kts 124°
2026-05-06 19:00 39.46513 -0.95766 25257 ft 407 kts 124°
2026-05-06 19:01 39.44650 -0.91529 25217 ft 405 kts 124°
2026-05-06 19:01 39.43253 -0.88361 25221 ft 406 kts 124°
2026-05-06 19:01 39.41859 -0.85192 25219 ft 406 kts 124°
2026-05-06 19:01 39.40465 -0.82013 25218 ft 406 kts 124°
2026-05-06 19:02 39.39068 -0.78836 25214 ft 406 kts 124°
2026-05-06 19:02 39.37669 -0.75665 25203 ft 406 kts 124°
2026-05-06 19:02 39.36262 -0.72486 25218 ft 408 kts 124°
2026-05-06 19:02 39.34847 -0.69301 25201 ft 409 kts 124°
2026-05-06 19:03 39.33434 -0.66129 25216 ft 408 kts 124°
2026-05-06 19:03 39.32020 -0.62948 25104 ft 408 kts 124°
2026-05-06 19:03 39.30611 -0.59775 24866 ft 406 kts 123°
2026-05-06 19:03 39.29419 -0.56459 24630 ft 408 kts 112°
2026-05-06 19:04 39.28715 -0.52906 24390 ft 410 kts 101°
2026-05-06 19:04 39.28532 -0.49235 24152 ft 411 kts 89°
2026-05-06 19:04 39.28731 -0.45550 23917 ft 409 kts 87°
2026-05-06 19:04 39.28938 -0.41943 23689 ft 407 kts 87°
2026-05-06 19:05 39.29137 -0.38308 23442 ft 405 kts 87°
2026-05-06 19:05 39.29328 -0.34693 23170 ft 402 kts 87°
2026-05-06 19:05 39.29511 -0.31098 22897 ft 401 kts 87°
2026-05-06 19:05 39.29690 -0.27512 22610 ft 399 kts 87°
2026-05-06 19:06 39.29870 -0.23954 22359 ft 397 kts 87°
2026-05-06 19:06 39.30053 -0.20402 22093 ft 395 kts 87°
2026-05-06 19:06 39.30239 -0.16864 21829 ft 394 kts 87°
2026-05-06 19:06 39.30423 -0.13335 21567 ft 392 kts 87°
2026-05-06 19:07 39.30601 -0.09836 21312 ft 390 kts 87°
2026-05-06 19:07 39.30718 -0.07523 21136 ft 389 kts 87°
2026-05-06 19:07 39.30951 -0.02879 20801 ft 387 kts 87°
2026-05-06 19:07 39.31124 0.00582 20539 ft 385 kts 87°
2026-05-06 19:08 39.31294 0.04035 20293 ft 385 kts 87°
2026-05-06 19:08 39.31464 0.07475 20044 ft 383 kts 87°